QPF
0.00 0.01 0.01 0.02 0.03 0.02 0.01 0.01 0.01 0.01 0.01 0.01 0.02 0.02 0.01 0.00 0.00 0.00 0.00 0.00 0.00 0.01 0.01 0.01 0.00 0.01 0.01 0.01 0.01 0.01 0.02 0.02 0.02 0.01 0.02 0.03 0.03 0.05 0.05 0.04 0.04 0.04 0.05 0.05
0.01 0.01 0.00 0.00 0.01 0.02 0.03 0.02 0.01 0.01 0.00 0.00 0.01 0.01 0.01 0.00 0.00 0.00 0.00 0.00 0.00 0.01 0.01 0.01 0.00 0.00 0.01 0.01 0.01 0.01 0.01 0.02 0.02 0.01 0.01 0.02 0.02 0.04 0.06 0.05 0.04 0.04 0.05 0.05
0.00 0.00 0.00 0.00 0.00 0.01 0.02 0.02 0.02 0.01 0.01 0.01 0.01 0.01 0.00 0.00 0.00 0.00 0.00 0.00 0.00 0.00 0.01 0.00 0.00 0.00 0.00 0.01 0.01 0.01 0.01 0.02 0.02 0.03 0.03 0.02 0.03 0.04 0.06 0.05 0.04 0.04 0.05 0.05
0.00 0.00 0.00 0.00 0.00 0.00 0.01 0.01 0.01 0.02 0.03 0.02 0.01 0.01 0.00 0.00 0.00 0.00 0.00 0.00 0.00 0.00 0.00 0.00 0.00 0.00 0.00 0.00 0.01 0.01 0.01 0.01 0.02 0.03 0.03 0.03 0.03 0.03 0.03 0.04 0.03 0.02 0.03 0.04
0.00 0.00 0.00 0.00 0.00 0.00 0.01 0.00 0.01 0.02 0.03 0.03 0.02 0.01 0.01 0.00 0.00 0.00 0.00 0.00 0.00 0.00 0.00 0.00 0.00 0.00 0.00 0.00 0.00 0.01 0.01 0.02 0.02 0.02 0.02 0.02 0.02 0.03 0.03 0.04 0.03 0.02 0.02 0.02
0.00 0.00 0.00 0.00 0.00 0.00 0.00 0.01 0.01 0.01 0.02 0.03 0.02 0.01 0.01 0.01 0.01 0.01 0.01 0.01 0.00 0.00 0.00 0.00 0.00 0.00 0.00 0.00 0.00 0.01 0.01 0.02 0.02 0.02 0.03 0.03 0.02 0.02 0.02 0.03 0.03 0.02 0.01 0.01
0.01 0.00 0.00 0.00 0.00 0.00 0.01 0.02 0.03 0.02 0.02 0.02 0.00 0.00 0.01 0.01 0.01 0.01 0.01 0.01 0.00 0.00 0.00 0.01 0.01 0.00 0.00 0.00 0.00 0.01 0.01 0.02 0.02 0.02 0.02 0.03 0.03 0.03 0.02 0.02 0.02 0.02 0.02 0.01
0.01 0.00 0.00 0.00 0.01 0.01 0.01 0.02 0.03 0.02 0.01 0.00 0.00 0.00 0.01 0.00 0.00 0.00 0.00 0.00 0.00 0.01 0.01 0.01 0.01 0.01 0.01 0.00 0.01 0.01 0.01 0.02 0.03 0.02 0.02 0.02 0.02 0.02 0.02 0.02 0.02 0.02 0.02 0.02
0.01 0.01 0.00 0.00 0.00 0.01 0.01 0.02 0.01 0.03 0.02 0.02 0.01 0.01 0.00 0.00 0.00 0.00 0.00 0.00 0.00 0.01 0.01 0.01 0.01 0.01 0.01 0.01 0.01 0.02 0.02 0.02 0.03 0.03 0.02 0.02 0.02 0.02 0.02 0.02 0.02 0.02 0.02 0.02
0.02 0.01 0.00 0.00 0.00 0.01 0.01 0.02 0.03 0.04 0.04 0.03 0.01 0.01 0.00 0.00 0.00 0.00 0.00 0.00 0.00 0.00 0.01 0.01 0.01 0.01 0.01 0.01 0.01 0.01 0.02 0.02 0.03 0.03 0.03 0.03 0.03 0.03 0.02 0.02 0.03 0.02 0.03 0.02
0.01 0.02 0.00 0.00 0.00 0.01 0.02 0.02 0.03 0.04 0.04 0.02 0.01 0.01 0.01 0.01 0.00 0.00 0.00 0.00 0.01 0.01 0.01 0.01 0.01 0.02 0.02 0.02 0.02 0.02 0.02 0.02 0.04 0.04 0.03 0.03 0.03 0.04 0.03 0.02 0.02 0.02 0.02 0.03
0.01 0.02 0.01 0.00 0.00 0.00 0.01 0.02 0.02 0.04 0.03 0.03 0.02 0.01 0.01 0.01 0.01 0.00 0.00 0.00 0.00 0.00 0.01 0.01 0.01 0.01 0.01 0.02 0.02 0.02 0.02 0.03 0.04 0.04 0.05 0.05 0.05 0.04 0.04 0.03 0.02 0.02 0.03 0.03
0.02 0.03 0.02 0.01 0.00 0.01 0.01 0.02 0.02 0.03 0.03 0.02 0.02 0.02 0.01 0.01 0.01 0.00 0.00 0.00 0.00 0.00 0.00 0.00 0.00 0.01 0.01 0.01 0.02 0.03 0.03 0.04 0.05 0.05 0.05 0.05 0.05 0.04 0.04 0.03 0.03 0.03 0.03 0.03
0.03 0.04 0.02 0.01 0.01 0.01 0.01 0.01 0.01 0.02 0.03 0.01 0.01 0.01 0.01 0.01 0.01 0.00 0.00 0.00 0.00 0.00 0.00 0.00 0.00 0.01 0.01 0.01 0.02 0.03 0.04 0.05 0.06 0.05 0.05 0.05 0.05 0.04 0.04 0.04 0.04 0.03 0.03 0.03
0.04 0.04 0.01 0.01 0.01 0.01 0.01 0.01 0.01 0.01 0.01 0.01 0.01 0.01 0.01 0.01 0.01 0.01 0.00 0.00 0.00 0.00 0.00 0.00 0.00 0.00 0.01 0.01 0.02 0.03 0.04 0.05 0.06 0.06 0.06 0.06 0.06 0.06 0.06 0.05 0.05 0.04 0.04 0.04
0.04 0.05 0.02 0.01 0.01 0.01 0.01 0.00 0.00 0.01 0.01 0.01 0.01 0.01 0.01 0.01 0.01 0.01 0.00 0.00 0.00 0.00 0.00 0.00 0.00 0.01 0.01 0.01 0.01 0.02 0.03 0.04 0.05 0.06 0.07 0.07 0.05 0.05 0.05 0.05 0.05 0.05 0.04 0.04
0.05 0.05 0.04 0.02 0.01 0.02 0.02 0.01 0.00 0.01 0.01 0.01 0.01 0.01 0.01 0.00 0.01 0.01 0.00 0.00 0.00 0.00 0.00 0.00 0.01 0.01 0.01 0.01 0.01 0.01 0.01 0.02 0.04 0.05 0.05 0.06 0.05 0.05 0.05 0.05 0.05 0.04 0.04 0.04
0.03 0.03 0.04 0.04 0.02 0.03 0.01 0.00 0.00 0.00 0.01 0.01 0.01 0.01 0.01 0.01 0.01 0.01 0.00 0.00 0.00 0.00 0.00 0.01 0.01 0.01 0.01 0.01 0.01 0.02 0.02 0.02 0.03 0.04 0.04 0.04 0.04 0.04 0.03 0.03 0.03 0.03 0.03 0.03
0.01 0.02 0.04 0.05 0.04 0.02 0.01 0.00 0.00 0.01 0.01 0.01 0.00 0.00 0.00 0.00 0.00 0.00 0.00 0.00 0.01 0.01 0.01 0.01 0.01 0.01 0.02 0.02 0.02 0.01 0.01 0.02 0.02 0.03 0.03 0.03 0.03 0.03 0.03 0.03 0.02 0.03 0.03 0.03
0.01 0.03 0.05 0.06 0.05 0.02 0.01 0.00 0.00 0.01 0.01 0.00 0.00 0.00 0.00 0.00 0.00 0.00 0.00 0.01 0.01 0.01 0.01 0.01 0.01 0.01 0.01 0.01 0.01 0.01 0.01 0.01 0.01 0.02 0.02 0.02 0.02 0.02 0.02 0.03 0.03 0.03 0.03 0.03
0.02 0.04 0.06 0.05 0.04 0.02 0.01 0.00 0.00 0.01 0.01 0.00 0.00 0.00 0.00 0.00 0.01 0.00 0.00 0.00 0.01 0.01 0.00 0.01 0.01 0.01 0.01 0.01 0.01 0.01 0.01 0.01 0.01 0.01 0.01 0.01 0.01 0.02 0.02 0.02 0.02 0.03 0.03 0.03
0.01 0.02 0.03 0.03 0.03 0.02 0.01 0.00 0.01 0.01 0.01 0.00 0.00 0.00 0.00 0.00 0.00 0.00 0.00 0.00 0.00 0.01 0.01 0.01 0.01 0.01 0.01 0.01 0.01 0.01 0.01 0.01 0.00 0.00 0.00 0.00 0.01 0.01 0.01 0.02 0.02 0.02 0.03 0.03
0.01 0.02 0.02 0.02 0.02 0.02 0.01 0.01 0.01 0.01 0.01 0.01 0.00 0.00 0.00 0.00 0.00 0.00 0.00 0.00 0.00 0.00 0.00 0.01 0.01 0.01 0.01 0.01 0.01 0.01 0.01 0.00 0.00 0.00 0.00 0.00 0.00 0.01 0.01 0.01 0.01 0.01 0.02 0.02
0.02 0.02 0.03 0.03 0.04 0.03 0.02 0.02 0.01 0.01 0.01 0.01 0.01 0.01 0.01 0.01 0.00 0.00 0.00 0.01 0.01 0.01 0.01 0.01 0.01 0.01 0.01 0.01 0.01 0.01 0.01 0.00 0.00 0.00 0.00 0.00 0.00 0.01 0.01 0.01 0.01 0.01 0.01 0.01
0.02 0.02 0.02 0.03 0.02 0.02 0.02 0.02 0.01 0.01 0.01 0.01 0.01 0.01 0.01 0.00 0.00 0.00 0.00 0.00 0.01 0.01 0.01 0.01 0.01 0.01 0.01 0.01 0.01 0.01 0.01 0.00 0.00 0.00 0.00 0.00 0.01 0.01 0.01 0.01 0.01 0.01 0.01 0.02
0.02 0.02 0.02 0.02 0.01 0.01 0.01 0.01 0.01 0.01 0.01 0.01 0.01 0.01 0.00 0.00 0.00 0.00 0.00 0.00 0.00 0.01 0.01 0.01 0.01 0.01 0.01 0.01 0.01 0.01 0.01 0.01 0.00 0.00 0.00 0.00 0.01 0.01 0.01 0.01 0.01 0.01 0.02 0.02
MSLP
1020.06 1020.71 1021.30 1021.79 1022.18 1022.47 1022.67 1022.82 1022.93 1023.02 1023.11 1023.20 1023.28 1023.32 1023.32 1023.27 1023.16 1023.01 1022.85 1022.70 1022.61 1022.59 1022.68 1022.89 1023.20 1023.58 1024.00 1024.42 1024.79 1025.10 1025.30 1025.40 1025.40 1025.33 1025.21 1025.05 1024.86 1024.64 1024.40 1024.10 1023.75 1023.33 1022.83 1022.26
1021.06 1021.63 1022.10 1022.44 1022.68 1022.82 1022.90 1022.96 1023.01 1023.08 1023.16 1023.24 1023.30 1023.32 1023.27 1023.15 1022.98 1022.77 1022.55 1022.37 1022.27 1022.27 1022.40 1022.65 1023.01 1023.45 1023.92 1024.39 1024.82 1025.17 1025.42 1025.57 1025.62 1025.59 1025.50 1025.36 1025.18 1024.97 1024.71 1024.40 1024.04 1023.61 1023.12 1022.57
1021.96 1022.48 1022.86 1023.10 1023.22 1023.25 1023.24 1023.22 1023.21 1023.23 1023.26 1023.29 1023.29 1023.24 1023.12 1022.94 1022.70 1022.45 1022.21 1022.02 1021.93 1021.96 1022.12 1022.41 1022.81 1023.28 1023.78 1024.29 1024.75 1025.14 1025.45 1025.66 1025.78 1025.82 1025.79 1025.69 1025.54 1025.33 1025.07 1024.76 1024.38 1023.96 1023.48 1022.95
1022.69 1023.19 1023.52 1023.71 1023.77 1023.74 1023.67 1023.59 1023.52 1023.46 1023.42 1023.36 1023.26 1023.11 1022.91 1022.66 1022.37 1022.10 1021.86 1021.70 1021.65 1021.72 1021.91 1022.23 1022.64 1023.11 1023.62 1024.12 1024.60 1025.02 1025.38 1025.66 1025.86 1025.98 1026.01 1025.98 1025.87 1025.69 1025.44 1025.13 1024.75 1024.33 1023.85 1023.34
1023.19 1023.69 1024.03 1024.21 1024.27 1024.23 1024.15 1024.03 1023.91 1023.78 1023.64 1023.46 1023.25 1022.98 1022.68 1022.35 1022.03 1021.75 1021.54 1021.43 1021.43 1021.56 1021.79 1022.13 1022.53 1022.98 1023.46 1023.94 1024.40 1024.84 1025.23 1025.57 1025.84 1026.04 1026.16 1026.20 1026.14 1026.00 1025.77 1025.47 1025.10 1024.68 1024.21 1023.70
1023.45 1023.97 1024.34 1024.57 1024.67 1024.67 1024.61 1024.50 1024.35 1024.15 1023.91 1023.61 1023.26 1022.87 1022.46 1022.06 1021.71 1021.44 1021.28 1021.24 1021.31 1021.50 1021.78 1022.12 1022.51 1022.93 1023.35 1023.78 1024.21 1024.63 1025.04 1025.41 1025.75 1026.03 1026.23 1026.33 1026.34 1026.24 1026.04 1025.76 1025.40 1024.98 1024.51 1024.01
1023.47 1024.02 1024.44 1024.74 1024.92 1025.01 1025.01 1024.94 1024.78 1024.54 1024.21 1023.80 1023.32 1022.81 1022.29 1021.83 1021.45 1021.20 1021.09 1021.11 1021.27 1021.52 1021.84 1022.20 1022.57 1022.94 1023.30 1023.67 1024.04 1024.43 1024.83 1025.23 1025.61 1025.95 1026.21 1026.39 1026.45 1026.40 1026.24 1025.98 1025.64 1025.23 1024.76 1024.25
1023.29 1023.86 1024.34 1024.71 1025.00 1025.20 1025.30 1025.29 1025.17 1024.91 1024.52 1024.02 1023.43 1022.80 1022.19 1021.66 1021.26 1021.01 1020.95 1021.04 1021.27 1021.58 1021.94 1022.31 1022.66 1022.98 1023.29 1023.59 1023.90 1024.24 1024.62 1025.03 1025.44 1025.82 1026.14 1026.36 1026.48 1026.48 1026.36 1026.13 1025.81 1025.41 1024.95 1024.44
1022.95 1023.54 1024.06 1024.52 1024.92 1025.23 1025.45 1025.54 1025.47 1025.23 1024.81 1024.25 1023.57 1022.85 1022.15 1021.56 1021.12 1020.87 1020.83 1020.97 1021.25 1021.61 1022.00 1022.38 1022.72 1023.01 1023.26 1023.50 1023.76 1024.07 1024.42 1024.82 1025.24 1025.65 1026.01 1026.28 1026.44 1026.48 1026.40 1026.20 1025.91 1025.54 1025.09 1024.60
1022.53 1023.11 1023.66 1024.19 1024.69 1025.12 1025.46 1025.65 1025.65 1025.45 1025.04 1024.45 1023.72 1022.92 1022.16 1021.50 1021.02 1020.75 1020.70 1020.85 1021.15 1021.53 1021.94 1022.33 1022.66 1022.93 1023.15 1023.37 1023.60 1023.87 1024.21 1024.61 1025.03 1025.46 1025.84 1026.14 1026.34 1026.41 1026.36 1026.20 1025.94 1025.60 1025.19 1024.72
1022.10 1022.65 1023.21 1023.79 1024.36 1024.88 1025.32 1025.61 1025.69 1025.55 1025.17 1024.57 1023.82 1022.98 1022.16 1021.44 1020.90 1020.59 1020.50 1020.63 1020.91 1021.29 1021.70 1022.09 1022.42 1022.69 1022.91 1023.12 1023.35 1023.62 1023.96 1024.36 1024.79 1025.22 1025.62 1025.94 1026.16 1026.27 1026.25 1026.13 1025.91 1025.61 1025.24 1024.81
1021.73 1022.24 1022.78 1023.37 1023.97 1024.55 1025.05 1025.41 1025.57 1025.48 1025.14 1024.56 1023.81 1022.95 1022.09 1021.33 1020.73 1020.36 1020.21 1020.28 1020.52 1020.87 1021.26 1021.64 1021.98 1022.27 1022.52 1022.75 1023.00 1023.30 1023.66 1024.07 1024.51 1024.95 1025.36 1025.69 1025.93 1026.05 1026.07 1025.98 1025.80 1025.55 1025.23 1024.86
1021.47 1021.92 1022.42 1022.97 1023.56 1024.14 1024.65 1025.04 1025.23 1025.19 1024.88 1024.34 1023.61 1022.76 1021.89 1021.10 1020.45 1020.01 1019.80 1019.80 1019.98 1020.28 1020.64 1021.01 1021.36 1021.68 1021.97 1022.25 1022.56 1022.90 1023.29 1023.73 1024.19 1024.64 1025.05 1025.40 1025.64 1025.79 1025.82 1025.77 1025.64 1025.44 1025.18 1024.87
1021.37 1021.74 1022.16 1022.63 1023.14 1023.65 1024.12 1024.47 1024.66 1024.62 1024.35 1023.84 1023.15 1022.33 1021.48 1020.68 1020.02 1019.54 1019.27 1019.20 1019.31 1019.56 1019.89 1020.25 1020.62 1020.97 1021.32 1021.67 1022.04 1022.44 1022.88 1023.36 1023.84 1024.30 1024.72 1025.07 1025.33 1025.48 1025.54 1025.52 1025.43 1025.29 1025.09 1024.85
1021.42 1021.69 1021.99 1022.33 1022.70 1023.08 1023.43 1023.69 1023.81 1023.74 1023.47 1023.00 1022.36 1021.61 1020.81 1020.05 1019.41 1018.92 1018.62 1018.51 1018.58 1018.78 1019.08 1019.44 1019.83 1020.23 1020.64 1021.06 1021.50 1021.97 1022.46 1022.97 1023.48 1023.96 1024.38 1024.74 1025.00 1025.17 1025.26 1025.28 1025.23 1025.13 1025.00 1024.82
1021.56 1021.71 1021.86 1022.03 1022.21 1022.39 1022.56 1022.67 1022.67 1022.54 1022.25 1021.81 1021.24 1020.57 1019.87 1019.20 1018.62 1018.17 1017.89 1017.78 1017.83 1018.01 1018.30 1018.67 1019.08 1019.52 1019.99 1020.47 1020.98 1021.51 1022.06 1022.60 1023.13 1023.63 1024.06 1024.42 1024.70 1024.89 1025.01 1025.06 1025.06 1025.02 1024.94 1024.82
1021.72 1021.73 1021.71 1021.67 1021.62 1021.57 1021.51 1021.41 1021.27 1021.04 1020.72 1020.30 1019.80 1019.25 1018.68 1018.14 1017.68 1017.34 1017.12 1017.06 1017.13 1017.32 1017.62 1018.00 1018.43 1018.91 1019.42 1019.96 1020.53 1021.10 1021.69 1022.26 1022.81 1023.32 1023.77 1024.14 1024.44 1024.66 1024.82 1024.91 1024.96 1024.97 1024.94 1024.87
1021.76 1021.64 1021.43 1021.18 1020.88 1020.58 1020.27 1019.96 1019.65 1019.31 1018.95 1018.56 1018.15 1017.73 1017.33 1016.96 1016.66 1016.46 1016.36 1016.38 1016.51 1016.74 1017.07 1017.47 1017.93 1018.44 1018.98 1019.55 1020.15 1020.75 1021.36 1021.96 1022.52 1023.04 1023.50 1023.90 1024.22 1024.48 1024.68 1024.83 1024.93 1024.99 1025.01 1024.99
1021.56 1021.31 1020.94 1020.48 1019.97 1019.43 1018.89 1018.38 1017.91 1017.48 1017.09 1016.74 1016.42 1016.15 1015.92 1015.75 1015.64 1015.61 1015.66 1015.79 1016.00 1016.30 1016.66 1017.09 1017.56 1018.09 1018.65 1019.23 1019.84 1020.46 1021.07 1021.67 1022.23 1022.76 1023.24 1023.66 1024.03 1024.34 1024.60 1024.80 1024.96 1025.08 1025.14 1025.15
1021.03 1020.67 1020.16 1019.54 1018.85 1018.12 1017.41 1016.75 1016.16 1015.67 1015.27 1014.97 1014.77 1014.64 1014.59 1014.62 1014.70 1014.84 1015.04 1015.30 1015.60 1015.96 1016.37 1016.82 1017.31 1017.84 1018.39 1018.98 1019.58 1020.18 1020.79 1021.38 1021.94 1022.48 1022.97 1023.43 1023.83 1024.20 1024.51 1024.78 1025.00 1025.17 1025.28 1025.32
1020.11 1019.67 1019.07 1018.34 1017.54 1016.70 1015.89 1015.15 1014.51 1014.00 1013.64 1013.41 1013.31 1013.33 1013.45 1013.65 1013.90 1014.20 1014.54 1014.90 1015.29 1015.71 1016.15 1016.62 1017.11 1017.63 1018.18 1018.74 1019.32 1019.91 1020.49 1021.07 1021.62 1022.16 1022.67 1023.15 1023.60 1024.02 1024.39 1024.73 1025.00 1025.22 1025.37 1025.45
1018.82 1018.32 1017.67 1016.90 1016.06 1015.20 1014.38 1013.64 1013.03 1012.57 1012.27 1012.14 1012.15 1012.30 1012.55 1012.88 1013.27 1013.69 1014.13 1014.58 1015.03 1015.49 1015.96 1016.43 1016.93 1017.44 1017.96 1018.50 1019.06 1019.61 1020.17 1020.73 1021.27 1021.81 1022.33 1022.83 1023.32 1023.78 1024.21 1024.59 1024.92 1025.19 1025.37 1025.47
1017.20 1016.66 1016.00 1015.25 1014.46 1013.67 1012.92 1012.27 1011.76 1011.40 1011.20 1011.17 1011.30 1011.55 1011.90 1012.32 1012.79 1013.29 1013.78 1014.28 1014.77 1015.25 1015.73 1016.21 1016.70 1017.20 1017.71 1018.23 1018.76 1019.30 1019.83 1020.37 1020.90 1021.43 1021.95 1022.47 1022.98 1023.47 1023.94 1024.37 1024.74 1025.03 1025.25 1025.37
1015.35 1014.79 1014.15 1013.47 1012.79 1012.13 1011.53 1011.04 1010.68 1010.46 1010.40 1010.48 1010.70 1011.02 1011.43 1011.91 1012.41 1012.93 1013.44 1013.95 1014.45 1014.94 1015.42 1015.91 1016.40 1016.90 1017.41 1017.92 1018.44 1018.96 1019.48 1020.00 1020.52 1021.04 1021.56 1022.09 1022.61 1023.13 1023.61 1024.06 1024.46 1024.78 1025.02 1025.16
1013.40 1012.82 1012.23 1011.65 1011.10 1010.61 1010.21 1009.91 1009.73 1009.69 1009.76 1009.95 1010.25 1010.62 1011.06 1011.53 1012.03 1012.53 1013.03 1013.53 1014.02 1014.51 1015.01 1015.51 1016.02 1016.53 1017.05 1017.58 1018.10 1018.62 1019.13 1019.64 1020.16 1020.67 1021.19 1021.72 1022.25 1022.76 1023.26 1023.72 1024.13 1024.46 1024.71 1024.87
1011.47 1010.88 1010.34 1009.87 1009.47 1009.16 1008.96 1008.86 1008.87 1008.99 1009.19 1009.47 1009.82 1010.22 1010.65 1011.11 1011.57 1012.04 1012.51 1012.99 1013.47 1013.97 1014.48 1015.01 1015.55 1016.10 1016.65 1017.20 1017.75 1018.28 1018.80 1019.32 1019.83 1020.34 1020.86 1021.38 1021.90 1022.42 1022.92 1023.38 1023.79 1024.13 1024.39 1024.56
Thickness
5546 5540 5542 5544 5544 5546 5542 5537 5536 5540 5543 5539 5540 5548 5561 5561 5558 5560 5561 5563 5564 5566 5568 5568 5567 5567 5566 5565 5564 5564 5563 5563 5563 5562 5561 5561 5562 5562 5562 5562 5562 5563 5562 5561
5534 5536 5543 5540 5538 5537 5534 5530 5530 5533 5535 5532 5532 5541 5554 5557 5557 5559 5559 5559 5559 5560 5561 5562 5561 5560 5559 5558 5558 5558 5558 5557 5557 5557 5556 5556 5556 5556 5556 5556 5556 5556 5556 5554
5533 5536 5537 5534 5532 5529 5528 5525 5527 5525 5524 5524 5522 5538 5550 5557 5555 5556 5555 5555 5555 5555 5555 5555 5555 5553 5552 5551 5551 5552 5551 5550 5550 5550 5549 5548 5547 5548 5548 5549 5549 5549 5548 5547
5521 5527 5528 5527 5525 5525 5524 5525 5522 5518 5513 5511 5515 5520 5545 5548 5548 5550 5549 5547 5547 5548 5548 5548 5548 5546 5545 5543 5542 5542 5543 5542 5542 5542 5542 5542 5542 5542 5543 5543 5542 5541 5541 5540
5515 5516 5517 5520 5522 5519 5518 5517 5514 5511 5506 5501 5504 5503 5530 5537 5543 5547 5544 5542 5542 5541 5540 5540 5539 5539 5537 5535 5533 5533 5533 5534 5534 5534 5534 5534 5535 5536 5535 5534 5534 5534 5534 5533
5506 5507 5507 5511 5512 5511 5509 5506 5502 5495 5492 5493 5505 5496 5513 5525 5535 5539 5539 5536 5533 5531 5531 5530 5530 5530 5529 5526 5524 5524 5524 5524 5525 5525 5526 5527 5528 5528 5527 5527 5526 5526 5526 5526
5498 5500 5500 5501 5503 5502 5501 5496 5487 5483 5473 5485 5495 5492 5507 5520 5522 5525 5525 5524 5522 5521 5521 5521 5521 5521 5520 5518 5516 5515 5516 5516 5516 5516 5517 5519 5520 5520 5521 5520 5520 5519 5519 5518
5485 5489 5491 5489 5494 5492 5492 5493 5487 5481 5477 5481 5485 5488 5509 5511 5511 5511 5511 5511 5511 5510 5511 5512 5512 5511 5510 5509 5507 5506 5507 5508 5507 5508 5508 5510 5511 5512 5513 5513 5513 5512 5512 5512
5473 5479 5482 5482 5484 5486 5483 5481 5485 5474 5462 5464 5480 5487 5499 5507 5504 5502 5501 5501 5500 5499 5499 5500 5501 5501 5501 5500 5499 5498 5499 5499 5499 5499 5500 5501 5502 5503 5504 5505 5505 5504 5504 5504
5464 5464 5470 5471 5474 5475 5474 5471 5465 5465 5466 5467 5480 5484 5491 5499 5496 5492 5490 5489 5490 5490 5489 5490 5490 5490 5490 5489 5490 5490 5490 5490 5491 5491 5492 5493 5493 5494 5495 5495 5496 5496 5496 5495
5454 5454 5459 5460 5460 5464 5462 5461 5461 5457 5461 5467 5470 5482 5482 5484 5484 5479 5478 5478 5478 5479 5478 5478 5478 5478 5479 5479 5479 5480 5481 5481 5482 5482 5483 5484 5485 5485 5485 5486 5486 5487 5486 5486
5443 5443 5445 5449 5452 5452 5454 5455 5451 5455 5452 5452 5460 5469 5473 5467 5467 5465 5464 5465 5466 5467 5467 5467 5466 5466 5467 5468 5468 5469 5470 5471 5472 5473 5474 5475 5475 5476 5476 5476 5477 5477 5477 5476
5435 5434 5434 5442 5441 5436 5438 5440 5439 5439 5436 5434 5444 5462 5461 5456 5455 5453 5452 5452 5454 5456 5457 5456 5456 5455 5456 5457 5458 5458 5459 5460 5462 5463 5464 5465 5465 5465 5465 5466 5466 5467 5467 5466
5431 5423 5428 5438 5443 5431 5426 5425 5425 5427 5427 5429 5437 5450 5452 5449 5446 5444 5442 5443 5443 5445 5447 5446 5445 5444 5445 5446 5447 5448 5448 5450 5451 5452 5453 5453 5454 5454 5454 5455 5455 5455 5456 5456
5418 5413 5410 5417 5421 5417 5416 5418 5414 5415 5421 5426 5439 5436 5444 5439 5436 5434 5433 5433 5434 5435 5436 5437 5436 5434 5434 5435 5436 5437 5438 5440 5441 5442 5442 5442 5442 5443 5444 5444 5444 5444 5444 5444
5402 5401 5399 5402 5408 5407 5407 5412 5410 5409 5410 5412 5418 5427 5434 5427 5423 5422 5421 5422 5422 5423 5424 5424 5424 5423 5423 5424 5425 5426 5427 5429 5430 5430 5431 5431 5431 5431 5433 5433 5433 5433 5433 5432
5389 5388 5389 5391 5391 5394 5397 5412 5407 5403 5405 5407 5415 5428 5422 5417 5415 5413 5411 5410 5411 5411 5412 5411 5411 5411 5411 5411 5413 5414 5416 5417 5418 5419 5419 5419 5419 5420 5421 5422 5422 5422 5422 5421
5381 5378 5373 5372 5378 5392 5418 5414 5409 5404 5403 5400 5406 5409 5406 5405 5403 5400 5397 5397 5398 5398 5398 5398 5398 5398 5398 5398 5400 5402 5404 5405 5407 5407 5407 5407 5407 5409 5410 5411 5411 5411 5410 5410
5378 5375 5364 5360 5367 5377 5400 5402 5395 5394 5398 5394 5393 5395 5393 5390 5392 5392 5389 5385 5385 5384 5384 5383 5383 5384 5385 5386 5388 5389 5392 5393 5394 5395 5395 5396 5396 5397 5398 5398 5399 5399 5399 5400
5364 5362 5355 5350 5362 5371 5401 5397 5389 5389 5392 5390 5383 5383 5380 5379 5384 5389 5379 5374 5372 5371 5370 5370 5371 5372 5373 5374 5375 5377 5379 5380 5381 5382 5382 5383 5384 5385 5386 5387 5387 5387 5388 5389
5345 5341 5340 5339 5345 5361 5376 5376 5379 5379 5389 5375 5370 5370 5367 5368 5371 5367 5362 5359 5358 5357 5357 5357 5358 5359 5360 5360 5362 5363 5364 5365 5366 5368 5369 5370 5370 5371 5373 5374 5375 5375 5376 5376
5344 5336 5330 5330 5337 5357 5362 5358 5362 5368 5362 5357 5355 5353 5351 5349 5348 5347 5345 5344 5344 5343 5343 5343 5344 5344 5345 5346 5348 5349 5350 5351 5352 5354 5355 5356 5357 5358 5360 5361 5361 5362 5363 5364
5339 5343 5341 5343 5354 5353 5345 5345 5341 5340 5341 5339 5338 5336 5336 5335 5333 5332 5330 5329 5329 5328 5327 5328 5328 5329 5330 5330 5332 5334 5335 5336 5338 5340 5342 5343 5345 5346 5347 5349 5349 5350 5350 5351
5324 5322 5327 5326 5335 5332 5327 5323 5321 5321 5321 5321 5321 5321 5321 5319 5318 5316 5316 5316 5314 5314 5312 5312 5312 5314 5315 5316 5317 5318 5319 5321 5323 5326 5328 5331 5332 5334 5335 5336 5337 5338 5338 5339
5312 5306 5311 5315 5320 5316 5317 5311 5310 5308 5306 5305 5305 5304 5304 5304 5303 5301 5301 5300 5299 5299 5297 5297 5297 5299 5300 5301 5303 5304 5305 5307 5309 5312 5314 5317 5319 5321 5322 5324 5324 5326 5328 5328
5296 5294 5300 5314 5310 5307 5309 5302 5298 5294 5293 5293 5292 5291 5290 5289 5289 5288 5286 5284 5283 5283 5282 5282 5282 5284 5286 5287 5289 5290 5291 5293 5295 5298 5300 5302 5305 5307 5308 5310 5312 5315 5316 5318